Left ArrowRight Arrow

41.12389, -100.76542

Hourly Observations for June 13, 2024

Temp ( °F °C ) Dew Point ( °F °C ) Humidity (%) Winds ( mph kmh ) Pressure ( in mb ) Visibility ( mi km ) Precip ( " mm )
12:53 am 00:53 Clear 69 20.6 63 17.2 81 81 Calm 29.74 1007 10 16 0.00 0.00
1:53 am 01:53 Clear 67 19.4 62 16.7 84 84 Calm 29.72 1007 10 16 0.00 0.00
2:53 am 02:53 Clear 65 18.3 61 16.1 87 87 NE 3 6 29.70 1006 10 16 0.00 0.00
3:53 am 03:53 Clear 63 17.2 60 15.6 90 90 Calm 29.69 1006 10 16 0.00 0.00
4:53 am 04:53 Clear 62 16.7 59 15 90 90 Calm 29.68 1005 10 16 0.00 0.00
5:53 am 05:53 Clear 62 16.7 59 15 90 90 NW 6 9 29.70 1006 10 16 0.00 0.00
6:53 am 06:53 Sunny 63 17.2 59 15 87 87 WNW 5 7 29.72 1007 10 16 0.00 0.00
7:53 am 07:53 Sunny 68 20 60 15.6 76 76 NW 7 11 29.74 1007 10 16 0.00 0.00
8:53 am 08:53 Sunny 75 23.9 61 16.1 62 62 WNW 10 17 29.77 1008 10 16 0.00 0.00
9:53 am 09:53 Sunny 82 27.8 59 15 46 46 NW 15 24 29.81 1009 10 16 0.00 0.00
10:53 am 10:53 Sunny 80 26.7 61 16.1 52 52 N 15 24 29.85 1011 10 16 0.00 0.00
11:53 am 11:53 Sunny 81 27.2 59 15 47 47 NNE 22 35 29.88 1012 10 16 0.00 0.00
12:53 pm 12:53 Sunny 81 27.2 55 12.8 41 41 NE 18 30 29.91 1013 10 16 0.00 0.00
1:53 pm 13:53 Sunny 81 27.2 58 14.4 45 45 ENE 20 31 29.93 1013 10 16 0.00 0.00
2:53 pm 14:53 Sunny 83 28.3 59 15 44 44 ENE 18 30 29.92 1013 10 16 0.00 0.00
3:22 pm 15:22 Sunny with Thunderstorms 79 26.1 58 14.4 49 49 ENE 15 24 29.82 1010 10 16 0.00 0.00
3:53 pm 15:53 Sunny 82 27.8 59 15 46 46 ENE 17 28 29.92 1013 10 16 0.01 0.13
4:53 pm 16:53 Sunny 83 28.3 59 15 44 44 E 15 24 29.93 1014 10 16 0.00 0.00
5:53 pm 17:53 Sunny 83 28.3 59 15 44 44 ENE 14 22 29.93 1014 10 16 0.00 0.00
6:53 pm 18:53 Sunny 82 27.8 60 15.6 47 47 ENE 14 22 29.95 1014 10 16 0.00 0.00
7:53 pm 19:53 Sunny 79 26.1 60 15.6 52 52 ENE 8 13 29.96 1015 10 16 0.00 0.00
8:53 pm 20:53 Sunny 75 23.9 61 16.1 62 62 NE 7 11 29.94 1014 10 16 0.00 0.00
9:53 pm 21:53 Clear 68 20 60 15.6 76 76 NE 6 9 29.96 1015 10 16 0.00 0.00
10:53 pm 22:53 undefined 67 19.4 59 15 76 76 NNE 5 7 30.01 1016 10 16 0.00 0.00
11:53 pm 23:53 Clear 65 18.3 59 15 81 81 ESE 8 13 30.01 1016 10 16 0.00 0.00

Powered by Vaisala Xweather